Regional Weather Roundup
Issued by NWS

Home | Current Version | Previous Version | Graphics & Text | Print | Product List | Glossary On
Versions: 1 2 3 4 5 6 7 8 9 10 11 12 13 14 15 16 17 18 19 20 21 22 23 24 25 26 27 28 29 30 31 32 33 34 35 36 37 38 39 40 41 42 43 44 45 46 47 48 49 50
000
ASUS43 KMPX 300301
RWRMN
WEATHER ROUNDUP FOR MINNESOTA
NATIONAL WEATHER SERVICE TWIN CITIES/CHANHASSEN MN
1000 PM CDT FRI JUL 29 2016


NOTE: "FAIR" INDICATES FEW OR NO CLOUDS BELOW 12,000 FEET WITH NO
SIGNIFICANT WEATHER AND/OR OBSTRUCTIONS TO VISIBILITY. N/A MEANS
CURRENT SKY AND/OR WEATHER CONDITIONS ARE NOT AVAILABLE.

MNZ060>063-068>070-300400-
   Twin Cities Metro

CITY           SKY/WX    TMP DP  RH WIND       PRES   REMARKS
TWIN CITIES    PTCLDY    70  55  59 N6        30.03S
ST PAUL        CLEAR     68  58  70 CALM      30.03S
CRYSTAL        CLEAR     65  53  65 CALM      30.03R
BLAINE         CLEAR     66  57  72 CALM      30.04S
LAKEVILLE      CLEAR     61  57  88 CALM      30.03S
EDEN PRAIRIE   CLOUDY    71  54  54 N3        30.02S
LAKEVILLE      CLEAR     61  57  88 CALM      30.03S
SOUTH ST PAUL  PTCLDY    70  55  60 CALM      30.03S
LAKE ELMO      FAIR      63  61  94 CALM      30.05R
$$
MNZ001>005-007-008-013>017-022>024-027-028-300400-
   Northwest Minnesota

CITY           SKY/WX    TMP DP  RH WIND       PRES   REMARKS
BEMIDJI        PTCLDY    67  59  77 S7        30.02S
HALLOCK        CLEAR     64  61  88 CALM      29.99R
ROSEAU         CLEAR     64  61  88 CALM      30.01R
WARROAD        CLEAR     66  63  88 CALM      30.01R
THIEF RVR FALL PTCLDY    66  58  75 CALM      30.02R
CROOKSTON      CLEAR     68  55  64 CALM      30.00S
FOSSTON        CLEAR     57  45  62 CALM      30.03R
DETROIT LAKES  PTCLDY    68  63  83 SW3       30.05R
MOORHEAD       PTCLDY    70  64  83 S6        30.02R
PARK RAPIDS    CLOUDY    69  61  75 SE7       30.04R
MAHNOMEN       FAIR      69  57  64 CALM      30.02R
$$
MNZ006-009>011-018-025>026-300400-
   North Central Minnesota

CITY           SKY/WX    TMP DP  RH WIND       PRES   REMARKS
BAUDETTE       CLEAR     65  56  72 CALM      30.01R
FLAG ISLAND    MOCLDY    73  57  56 CALM      29.99S
INTL FALLS     CLOUDY    66  58  75 SE5       30.02S
WASKISH        CLEAR     63  61  94 CALM      30.02S FOG
BIG FORK       CLEAR     61  57  88 CALM      30.05R
LONGVILLE      CLOUDY    64  61  88 CALM      30.05R
GRAND RAPIDS   PTCLDY    64  55  72 SE6       30.08R
CRANE LAKE     CLEAR     57  55  94 S1        30.06R
ORR            CLEAR     61  54  77 CALM      30.03R
COOK           CLEAR     63  57  82 CALM      30.06S
WALKER         FAIR      66  59  77 S3        30.04R
$$
MNZ012-019>021-037-300400-
   Northeast Minnesota

CITY           SKY/WX    TMP DP  RH WIND       PRES   REMARKS
DULUTH         CLEAR     59  51  75 E6        30.07S
ELY            CLEAR     63  50  63 CALM      30.07S
HIBBING        CLEAR     58  52  80 CALM      30.07R
EVELETH        CLEAR     58  54  86 CALM      30.08S
DULUTH HARBOR  CLEAR     64  61  88 NE9       30.07R
TWO HARBORS    CLEAR     61  54  77 N3        30.06S
SILVER BAY     CLEAR     55  54  94 CALM      30.07S
GRAND MARAIS     N/A     58  52  80 N5        30.07S
G MARAIS ARPRT CLEAR     55  46  71 CALM      30.12S
$$
MNZ029>031-032-039>041-046>048-054>057-064-300400-
   West Central Minnesota

CITY           SKY/WX    TMP DP  RH WIND       PRES   REMARKS
FERGUS FALLS   PTCLDY    68  63  83 CALM        N/A
WHEATON        CLEAR     66  63  88 SE5       30.05R
MORRIS         PTCLDY    66  63  88 S5        30.04R
ALEXANDRIA     MOCLDY    69  59  70 SE6       30.06R
ELBOW LAKE     FAIR      68  63  85 E5        30.04S
WADENA         PTCLDY    64  63  94 S1        30.04R
GLENWOOD       CLOUDY    68  61  77 SE5       30.07R
APPLETON       CLEAR     68  59  73 SE3       30.04R
BENSON         PTCLDY    66  57  72 CALM      30.05R
ORTONVILLE     CLEAR     66  59  77 CALM      30.04R
MADISON        CLEAR     64  59  82 S3        30.05R
WILLMAR        FAIR      68  61  77 SE3       30.07R
$$
MNZ033>034-036-042>043-049>051-058-059-300400-
   Central Minnesota

CITY           SKY/WX    TMP DP  RH WIND       PRES   REMARKS
ST CLOUD       CLOUDY    62  59  90 CALM      30.05R
SAUK CENTRE    CLOUDY    69  58  68 E5        30.06R
PAYNESVILLE    CLOUDY    69  56  64 CALM      30.06S
AITKIN         CLOUDY    61  54  77 CALM      30.06R
PINE RIVER     CLOUDY    66  63  88 CALM      30.08R
BRAINERD       PTCLDY    67  58  72 SE6       30.06R
STAPLES        CLOUDY    66  57  72 CALM      30.05R
LONG PRAIRIE   CLOUDY    68  59  73 E3        30.06R
LITTLE FALLS   CLOUDY    63  55  77 CALM      30.06R
LITCHFIELD     PTCLDY    66  59  77 CALM      30.06R
BUFFALO        PTCLDY    64  55  73 CALM      30.06R
MAPLE LAKE     CLOUDY    62  59  88 CALM      30.06S
HUTCHINSON     CLEAR     63  59  89 CALM      30.06R
$$
MNZ037-044-045-052-053-300400-
   East Central Minnesota

CITY           SKY/WX    TMP DP  RH WIND       PRES   REMARKS
PRINCETON      CLOUDY    61  55  82 CALM      30.06R
MORA           CLEAR     59  54  82 CALM      30.07S
CAMBRIDGE      CLEAR     63  54  72 CALM      30.03F
RUSH CITY      CLEAR     62  57  85 CALM      30.05S
MOOSE LAKE     CLEAR     55  54  94 CALM      30.05S
HINCKLEY       FAIR      63  59  88 CALM      30.06S
CLOQUET        CLEAR     61  50  67 CALM      30.07S
MCGREGOR       CLEAR     61  54  77 SE3       30.07R
$$
MNZ071>073-080-081-089-090-097-098-300400-
   Southwest Minnesota

CITY           SKY/WX    TMP DP  RH WIND       PRES   REMARKS
MONTEVIDEO     CLEAR     68  57  68 S3        30.06S
GRANITE FALLS  CLEAR     65  62  88 CALM      30.06S
CANBY          CLEAR     69  58  69 S3        30.06R
MARSHALL       CLEAR     65  59  81 CALM      30.06R
REDWOOD FALLS  CLEAR     69  56  62 CALM      30.04R
OLIVIA         CLEAR     70  59  68 SE3       30.05R
PIPESTONE      CLEAR     68  55  64 E3        30.07R
WINDOM         CLEAR     63  57  82 CALM      30.06R
WORTHINGTON    CLEAR     63  57  81 CALM      30.08R
JACKSON        CLEAR     61  55  82 CALM      30.07R
TRACY          CLEAR     64  59  86 CALM      30.07R
SLAYTON        CLEAR     63  58  83 CALM      30.09R
$$
MNZ065>067-074>077-082>085-091>093-300400-
   South Central Minnesota

CITY           SKY/WX    TMP DP  RH WIND       PRES   REMARKS
MANKATO        CLOUDY    68  52  56 NE6       30.03S
NEW ULM        PTCLDY    66  55  68 CALM      30.04R
ST JAMES       PTCLDY    59  54  82 CALM      30.06R
FAIRMONT       PTCLDY    63  55  77 N5        30.04R
GLENCOE        MOCLDY    64  60  86 N3        30.03S
FARIBAULT      CLEAR     61  61 100 CALM      30.04S
OWATONNA       CLEAR     64  57  77 CALM      30.04S
WASECA         CLEAR     61  55  82 NE3       30.05R
ALBERT LEA     CLEAR     64  63  94 CALM      30.04S
$$
MNZ078>079-086>088-094>096-300400-
   Southeast Minnesota

CITY           SKY/WX    TMP DP  RH WIND       PRES   REMARKS
ROCHESTER      CLOUDY    69  60  73 NE6       30.04R
RED WING       CLOUDY    66  61  82 CALM      30.02S
STANTON        PTCLDY    63  59  88 CALM      30.02S
DODGE CENTER   CLEAR     64  57  77 NE5       30.04S
WINONA         PTCLDY    70  63  78 CALM      30.02S
AUSTIN         MOCLDY    64  61  88 CALM      30.03S
PRESTON        CLOUDY    68  63  83 E3        30.04S
$$
ABBREVIATIONS USED IN REMARKS
   TC - TEMPERATURES IN CELSIUS
  WCI - WIND CHILL INDEX
   HX - HEAT INDEX
  VSB - VISIBILITY
$$




USA.gov is the U.S. government's official web portal to all federal, state and local government web resources and services.